Location: Cartignies
(50.0929°N, 3.8447°E)
Time: 13:25:41
(UTC+00:00)

USA 267 - Pass Details

Date: 12 January 2026
Orbit: 1101 x 1107 km, 123.0° (Epoch: 10 January)

Event Time Altitude Azimuth Distance (km) Brightness Sun altitude
Exits shadow 18:46:12 36° 134° (SE) 1,682 3.9 -24.8°
Maximum altitude 18:49:11 78° 215° (SW) 1,130 3.3 -25.2°
Drops below altitude 10° 18:55:45 10° 301° (WNW) 2,965 6.2 -26.3°
Sets 18:58:14 0° 303° (WNW) 3,925 7.0 -26.7°
